Burlington, CO

7:58 AM MDT on September 29, 2016 (GMT -0600)
Kit Carson County

Weather History for KITR - January, 2014

Change the Weather History Date:

Saturday, January 4, 2014

  Actual Average Record
Temperature  
Mean Temperature 23 °F 29 °F  
Max Temperature 45 °F 42 °F 71 °F (1987)
Min Temperature 0 °F 16 °F -25 °F (1959)
Degree Days  
Heating Degree Days 43    
Moisture  
Dew Point 17 °F    
Average Humidity 81    
Maximum Humidity 88    
Minimum Humidity 60    
Precipitation  
Precipitation 0.02 in 0.01 in 0.14 in (1940)
Month to date precipitation T 0.04  
Year to date precipitation T 0.04  
Sea Level Pressure  
Sea Level Pressure 29.95 in    
Wind  
Wind Speed 14 mph (North)    
Max Wind Speed 21 mph    
Max Gust Speed 28 mph    
Visibility 4 miles    
Events Fog , Snow    
T = Trace of Precipitation, MM = Missing Value Source: NWS Daily Summary

Daily Weather History Graph

Daily Weather History Graph

Search for Another Location

Airport or City:

Trip Planner

Search our weather history database for the weather conditions in past years. The results will help you decide how hot, cold, wet, or windy it might be!

Date:

Astronomy

Jan. 04, 2014 Rise Set
Actual Time 7:09 AM MST 4:39 PM MST
Civil Twilight 6:39 AM MST 5:09 PM MST
Nautical Twilight 6:05 AM MST 5:42 PM MST
Astronomical Twilight 5:33 AM MST 6:15 PM MST
Moon 9:17 AM MST (1/4) 8:59 PM MST (1/4)
Length of Visible Light 10h 30m
Length of Day
9h 30m
Waxing Crescent, 16% of the Moon is Illuminated
Jan 4
Waxing Crescent
Jan 7
First Quarter
Jan 15
Full
Jan 23
Last Quarter
Jan 30
New

Hourly Weather History & Observations

Time (MST) Temp. Windchill Dew Point Humidity Pressure Visibility Wind Dir Wind Speed Gust Speed Precip Events Conditions
12:53 AM 37.9 °F 28.9 °F 25.0 °F 60% 29.64 in 10.0 mi North 16.1 mph 27.6 mph N/A   Clear
1:53 AM 32.0 °F 23.0 °F 21.0 °F 64% 29.69 in 10.0 mi North 11.5 mph - N/A   Clear
2:53 AM 28.0 °F 18.1 °F 19.9 °F 72% 29.73 in 10.0 mi North 11.5 mph - N/A   Clear
3:53 AM 24.1 °F 13.7 °F 19.0 °F 81% 29.76 in 10.0 mi NNW 10.4 mph - N/A   Clear
4:53 AM 24.1 °F 13.1 °F 19.0 °F 81% 29.80 in 10.0 mi NNW 11.5 mph - N/A   Clear
5:53 AM 25.0 °F 12.2 °F 18.0 °F 75% 29.84 in 10.0 mi North 16.1 mph - N/A   Mostly Cloudy
6:53 AM 27.0 °F 14.7 °F 19.0 °F 72% 29.89 in 10.0 mi North 16.1 mph - N/A   Overcast
7:53 AM 25.0 °F 10.6 °F 18.0 °F 75% 29.94 in 10.0 mi North 20.7 mph 27.6 mph N/A   Overcast
8:35 AM 24.1 °F 11.0 °F 19.0 °F 81% 29.91 in 4.0 mi North 16.1 mph - 0.00 in Snow Light Snow
8:43 AM 24.1 °F 10.6 °F 19.0 °F 81% 29.91 in 1.8 mi North 17.3 mph - 0.00 in Snow Light Snow
8:53 AM 24.1 °F 12.5 °F 19.9 °F 84% 29.97 in 1.0 mi NNE 12.7 mph - 0.00 in Snow Light Snow
8:56 AM 24.1 °F 13.1 °F 19.9 °F 84% 29.91 in 0.8 mi NNE 11.5 mph - 0.00 in Snow Light Snow
9:14 AM 23.0 °F 10.6 °F 19.9 °F 88% 29.93 in 0.8 mi North 13.8 mph - 0.00 in Snow Light Snow
9:37 AM 23.0 °F 10.1 °F 19.9 °F 88% 29.94 in 1.0 mi North 15.0 mph - 0.00 in Snow Light Snow
9:44 AM 23.0 °F 10.6 °F 19.9 °F 88% 29.94 in 0.8 mi North 13.8 mph - 0.00 in Snow Light Snow
9:53 AM 23.0 °F 10.1 °F 19.9 °F 88% 29.98 in 0.5 mi North 15.0 mph - 0.00 in Fog , Snow Snow
10:02 AM 23.0 °F 10.6 °F 19.9 °F 88% 29.94 in 0.5 mi North 13.8 mph - 0.00 in Fog , Snow Snow
10:12 AM 24.1 °F 13.1 °F 19.9 °F 84% 29.94 in 0.8 mi NNE 11.5 mph - 0.01 in Snow Light Snow
10:18 AM 24.1 °F 13.7 °F 19.9 °F 84% 29.95 in 1.0 mi NNE 10.4 mph - 0.01 in Snow Light Snow
10:34 AM 24.1 °F 13.7 °F 19.9 °F 84% 29.94 in 1.5 mi North 10.4 mph - 0.01 in Snow Light Snow
10:53 AM 23.0 °F 10.6 °F 19.0 °F 85% 29.96 in 1.2 mi North 13.8 mph - 0.01 in Snow Light Snow
11:01 AM 24.1 °F 12.5 °F 19.9 °F 84% 29.92 in 1.0 mi North 12.7 mph - 0.00 in Snow Light Snow
11:15 AM 23.0 °F 8.7 °F 19.0 °F 85% 29.90 in 1.5 mi North 18.4 mph - 0.00 in Snow Light Snow
11:53 AM 24.1 °F 12.5 °F 19.9 °F 84% 29.92 in 0.8 mi North 12.7 mph - 0.00 in Snow Light Snow
12:02 PM 23.0 °F 11.1 °F 19.0 °F 85% 29.90 in 0.8 mi North 12.7 mph - 0.00 in Snow Light Snow
12:15 PM 23.0 °F 8.7 °F 19.0 °F 85% 29.89 in 0.8 mi North 18.4 mph - 0.00 in Snow Light Snow
12:23 PM 23.0 °F 8.7 °F 19.0 °F 85% 29.89 in 0.8 mi North 18.4 mph - 0.00 in Snow Light Snow
12:36 PM 23.0 °F 11.1 °F 19.0 °F 85% 29.90 in 0.8 mi North 12.7 mph - 0.00 in Snow Light Snow
12:44 PM 23.0 °F 8.7 °F 19.0 °F 85% 29.89 in 0.8 mi NNE 18.4 mph - 0.00 in Snow Light Snow
12:51 PM 21.2 °F 6.8 °F 17.6 °F 86% 29.89 in 0.5 mi NNE 17.3 mph - 0.00 in Fog , Snow Snow
12:53 PM 21.9 °F 7.8 °F 18.0 °F 85% 29.95 in 0.5 mi NNE 17.3 mph - 0.00 in Fog , Snow Snow
1:20 PM 21.9 °F 7.8 °F 18.0 °F 85% 29.90 in 0.5 mi NNE 17.3 mph - 0.01 in Fog , Snow Snow
1:53 PM 21.9 °F 6.9 °F 18.0 °F 85% 29.97 in 0.5 mi NNE 19.6 mph - 0.01 in Fog Light Freezing Fog
2:16 PM 21.0 °F 5.4 °F 17.1 °F 85% 29.91 in 0.5 mi North 20.7 mph - N/A Fog Light Freezing Fog
2:32 PM 21.0 °F 5.7 °F 18.0 °F 88% 29.90 in 1.0 mi NNE 19.6 mph - N/A   Overcast
2:53 PM 21.0 °F 6.6 °F 17.1 °F 85% 30.01 in 1.0 mi NNE 17.3 mph - N/A   Overcast
3:33 PM 19.9 °F 5.7 °F 16.0 °F 85% 29.96 in 0.8 mi NNE 16.1 mph - 0.00 in Snow Light Snow
3:37 PM 19.9 °F 5.7 °F 16.0 °F 85% 29.96 in 0.8 mi NNE 16.1 mph - 0.00 in Snow Light Snow
3:53 PM 19.9 °F 5.2 °F 16.0 °F 85% 30.07 in 0.8 mi North 17.3 mph - 0.00 in Snow Light Snow
4:05 PM 19.0 °F 3.2 °F 15.1 °F 85% 29.97 in 0.8 mi North 19.6 mph - 0.00 in Snow Light Snow
4:18 PM 18.0 °F 2.6 °F 14.0 °F 84% 29.98 in 1.0 mi North 17.3 mph - 0.00 in Snow Light Snow
4:44 PM 18.0 °F 3.1 °F 12.9 °F 81% 29.97 in 3.0 mi NNE 16.1 mph - 0.00 in Snow Light Snow
4:53 PM 18.0 °F 2.6 °F 12.0 °F 78% 30.09 in 3.0 mi NNE 17.3 mph - 0.00 in Snow Light Snow
5:53 PM 19.0 °F 6.8 °F 10.0 °F 68% 30.12 in 10.0 mi North 11.5 mph - 0.00 in   Overcast
6:53 PM 19.0 °F 7.5 °F 9.0 °F 65% 30.14 in 10.0 mi North 10.4 mph - N/A   Overcast
7:53 PM 18.0 °F 6.9 °F 9.0 °F 68% 30.17 in 10.0 mi North 9.2 mph - N/A   Mostly Cloudy
8:53 PM 15.1 °F 4.2 °F 8.1 °F 74% 30.19 in 10.0 mi NNW 8.1 mph - N/A   Clear
9:53 PM 10.9 °F -1.8 °F 3.9 °F 73% 30.22 in 10.0 mi NNW 9.2 mph - N/A   Clear
10:53 PM 7.0 °F -5.7 °F 1.0 °F 77% 30.24 in 10.0 mi NNW 8.1 mph - N/A   Clear
11:53 PM 1.9 °F -10.6 °F -2.9 °F 80% 30.25 in 10.0 mi NW 6.9 mph - N/A   Clear